CSN6043 ZGGG-ZGHA

Flight info

Callsign CSN6043
Flight time 0h 53m
Altitude 35100
Route MIKIP1 MIKIP A461 MEXON MEX1X
Aircraft B77W/H-SDE1E2E3FGHIJ2J3J4J5M1RWXY/LB1D1

Departure

Time 2026-04-21 08:26
Airport Guangzhou Baiyun International Airport (ZGGG)

Arrival

Time 2026-04-21 09:19
Airport Changsha Huanghua International Airport (ZGHA)
Time Latitude Longitude Altitude Speed Heading
2026-04-21 08:06 23.40147 113.30721 59 ft 0 kts 277°
2026-04-21 08:15 23.40142 113.30740 65 ft 3 kts 294°
2026-04-21 08:15 23.40133 113.30758 49 ft 3 kts 305°
2026-04-21 08:16 23.40121 113.30773 51 ft 3 kts 318°
2026-04-21 08:16 23.40107 113.30786 51 ft 3 kts 330°
2026-04-21 08:16 23.40090 113.30794 51 ft 3 kts 346°
2026-04-21 08:16 23.40073 113.30798 55 ft 2 kts 349°
2026-04-21 08:17 23.40056 113.30801 50 ft 3 kts 358°
2026-04-21 08:17 23.40038 113.30800 50 ft 3 kts 11°
2026-04-21 08:17 23.40036 113.30800 50 ft 0 kts 15°
2026-04-21 08:20 23.40038 113.30801 50 ft 2 kts 15°
2026-04-21 08:20 23.40073 113.30810 51 ft 9 kts 13°
2026-04-21 08:21 23.40149 113.30830 52 ft 13 kts 13°
2026-04-21 08:21 23.40237 113.30852 53 ft 13 kts 13°
2026-04-21 08:21 23.40326 113.30878 56 ft 13 kts 25°
2026-04-21 08:21 23.40338 113.30971 55 ft 13 kts 101°
2026-04-21 08:22 23.40340 113.31066 51 ft 13 kts 52°
2026-04-21 08:22 23.40427 113.31105 54 ft 14 kts 14°
2026-04-21 08:22 23.40519 113.31131 53 ft 14 kts 14°
2026-04-21 08:22 23.40611 113.31156 53 ft 14 kts 14°
2026-04-21 08:23 23.40704 113.31181 54 ft 14 kts 14°
2026-04-21 08:23 23.40796 113.31206 52 ft 14 kts 14°
2026-04-21 08:23 23.40888 113.31232 56 ft 14 kts 24°
2026-04-21 08:23 23.40912 113.31295 53 ft 0 kts 96°
2026-04-21 08:24 23.40912 113.31296 53 ft 1 kts 96°
2026-04-21 08:24 23.40908 113.31326 51 ft 7 kts 102°
2026-04-21 08:25 23.40889 113.31395 53 ft 11 kts 114°
2026-04-21 08:25 23.40821 113.31416 50 ft 11 kts 187°
2026-04-21 08:25 23.40739 113.31395 52 ft 20 kts 194°
2026-04-21 08:25 23.40395 113.31303 51 ft 91 kts 194°
2026-04-21 08:26 23.39517 113.31067 53 ft 165 kts 194°
2026-04-21 08:26 23.38342 113.30723 648 ft 174 kts 193°
2026-04-21 08:26 23.37198 113.30405 1650 ft 164 kts 192°
2026-04-21 08:26 23.36095 113.30138 2488 ft 164 kts 190°
2026-04-21 08:27 23.34973 113.29881 3281 ft 162 kts 191°
2026-04-21 08:27 23.33886 113.29592 4074 ft 161 kts 194°
2026-04-21 08:27 23.32757 113.29266 4571 ft 180 kts 194°
2026-04-21 08:27 23.31435 113.28894 4783 ft 212 kts 194°
2026-04-21 08:28 23.29890 113.28479 5018 ft 242 kts 190°
2026-04-21 08:28 23.28159 113.28355 5688 ft 254 kts 182°
2026-04-21 08:28 23.26368 113.28361 6518 ft 261 kts 182°
2026-04-21 08:28 23.24528 113.28378 7370 ft 267 kts 182°
2026-04-21 08:29 23.22657 113.28383 8235 ft 271 kts 183°
2026-04-21 08:29 23.20752 113.28375 9122 ft 276 kts 184°
2026-04-21 08:29 23.18823 113.28347 9990 ft 278 kts 187°
2026-04-21 08:29 23.16873 113.28021 10519 ft 294 kts 196°
2026-04-21 08:30 23.14837 113.27410 10692 ft 317 kts 206°
2026-04-21 08:30 23.12997 113.25962 10902 ft 341 kts 229°
2026-04-21 08:30 23.11785 113.23702 11532 ft 354 kts 251°
2026-04-21 08:30 23.11475 113.21025 12453 ft 363 kts 273°
2026-04-21 08:31 23.11927 113.18309 13306 ft 370 kts 280°
2026-04-21 08:31 23.12501 113.15553 14160 ft 375 kts 281°
2026-04-21 08:31 23.13387 113.12883 14877 ft 384 kts 297°
2026-04-21 08:31 23.15100 113.10600 15718 ft 396 kts 315°
2026-04-21 08:32 23.17386 113.08948 16673 ft 404 kts 330°
2026-04-21 08:32 23.20115 113.07976 17593 ft 416 kts 348°
2026-04-21 08:32 23.22990 113.07865 18277 ft 423 kts 357°
2026-04-21 08:32 23.25959 113.07945 18914 ft 430 kts 358°
2026-04-21 08:33 23.28965 113.08018 19674 ft 431 kts 357°
2026-04-21 08:33 23.31971 113.08036 20481 ft 433 kts 356°
2026-04-21 08:33 23.34985 113.08023 21268 ft 434 kts 356°
2026-04-21 08:33 23.38004 113.08006 22126 ft 433 kts 356°
2026-04-21 08:34 23.41017 113.07995 22999 ft 433 kts 357°
2026-04-21 08:34 23.44028 113.07987 23807 ft 432 kts 356°
2026-04-21 08:34 23.47029 113.07980 24320 ft 432 kts 356°
2026-04-21 08:34 23.50035 113.07972 24411 ft 432 kts 356°
2026-04-21 08:35 23.53043 113.07960 24413 ft 431 kts 356°
2026-04-21 08:35 23.56048 113.07936 24420 ft 431 kts 356°
2026-04-21 08:35 23.59042 113.07908 24421 ft 431 kts 356°
2026-04-21 08:35 23.62039 113.07882 24418 ft 431 kts 356°
2026-04-21 08:36 23.65046 113.07857 24418 ft 431 kts 356°
2026-04-21 08:36 23.68008 113.07836 24416 ft 429 kts 357°
2026-04-21 08:36 23.70977 113.08233 24413 ft 436 kts 13°
2026-04-21 08:36 23.73776 113.09523 24432 ft 439 kts 22°
2026-04-21 08:37 23.76535 113.11023 24433 ft 446 kts 23°
2026-04-21 08:37 23.79351 113.12560 24434 ft 447 kts 23°
2026-04-21 08:37 23.82132 113.14067 24421 ft 445 kts 22°
2026-04-21 08:37 23.84874 113.15537 24422 ft 444 kts 22°
2026-04-21 08:38 23.87647 113.17011 24430 ft 443 kts 22°
2026-04-21 08:38 23.90424 113.18478 24425 ft 443 kts 22°
2026-04-21 08:38 23.93199 113.19940 24424 ft 442 kts 22°
2026-04-21 08:38 23.95981 113.21405 24435 ft 449 kts 22°
2026-04-21 08:39 23.98850 113.22912 24442 ft 465 kts 22°
2026-04-21 08:39 24.01819 113.24473 24455 ft 481 kts 22°
2026-04-21 08:39 24.04879 113.26087 24444 ft 495 kts 22°
2026-04-21 08:39 24.07997 113.27735 24431 ft 500 kts 22°
2026-04-21 08:40 24.11139 113.29399 24437 ft 502 kts 22°
2026-04-21 08:40 24.14286 113.31068 24444 ft 502 kts 22°
2026-04-21 08:40 24.17432 113.32734 24430 ft 502 kts 23°
2026-04-21 08:40 24.20582 113.34404 24430 ft 502 kts 22°
2026-04-21 08:41 24.23734 113.36075 24445 ft 501 kts 22°
2026-04-21 08:41 24.26833 113.37718 24433 ft 502 kts 22°
2026-04-21 08:41 24.29978 113.39386 24442 ft 502 kts 22°
2026-04-21 08:41 24.33127 113.41041 24430 ft 499 kts 21°
2026-04-21 08:42 24.36407 113.42212 24432 ft 494 kts
2026-04-21 08:42 24.39826 113.42390 24421 ft 491 kts 355°
2026-04-21 08:42 24.43244 113.42278 24430 ft 491 kts 356°
2026-04-21 08:42 24.46667 113.42274 24429 ft 493 kts 357°
2026-04-21 08:43 24.50098 113.42349 24432 ft 493 kts 358°
2026-04-21 08:43 24.53527 113.42459 24437 ft 494 kts 358°
2026-04-21 08:43 24.56960 113.42582 24428 ft 493 kts 358°
2026-04-21 08:43 24.60392 113.42703 24426 ft 493 kts 358°
2026-04-21 08:44 24.63817 113.42816 24432 ft 492 kts 358°
2026-04-21 08:44 24.67234 113.42923 24432 ft 491 kts 358°
2026-04-21 08:44 24.70659 113.43025 24423 ft 491 kts 358°
2026-04-21 08:44 24.74026 113.43122 24424 ft 491 kts 358°
2026-04-21 08:45 24.77444 113.43218 24432 ft 491 kts 358°
2026-04-21 08:45 24.80863 113.43315 24420 ft 491 kts 358°
2026-04-21 08:45 24.84276 113.43413 24429 ft 491 kts 358°
2026-04-21 08:45 24.87695 113.43512 24424 ft 491 kts 358°
2026-04-21 08:46 24.91111 113.43610 24424 ft 491 kts 358°
2026-04-21 08:46 24.94527 113.43709 24426 ft 491 kts 358°
2026-04-21 08:46 24.97941 113.43808 24425 ft 491 kts 358°
2026-04-21 08:46 25.01358 113.43907 24425 ft 490 kts 358°
2026-04-21 08:47 25.04775 113.44006 24461 ft 492 kts 358°
2026-04-21 08:47 25.08208 113.44105 24425 ft 494 kts 358°
2026-04-21 08:47 25.11606 113.44203 24420 ft 492 kts 358°
2026-04-21 08:47 25.15028 113.44303 24416 ft 490 kts 358°
2026-04-21 08:48 25.18430 113.44404 24424 ft 488 kts 358°
2026-04-21 08:48 25.21823 113.44504 24425 ft 487 kts 357°
2026-04-21 08:48 25.25210 113.44602 24431 ft 487 kts 357°
2026-04-21 08:48 25.28598 113.44699 24447 ft 487 kts 357°
2026-04-21 08:49 25.31996 113.44794 24430 ft 488 kts 357°
2026-04-21 08:49 25.35396 113.44893 24413 ft 489 kts 357°
2026-04-21 08:49 25.38799 113.44996 24445 ft 488 kts 357°
2026-04-21 08:49 25.42194 113.45096 24423 ft 489 kts 357°
2026-04-21 08:50 25.45548 113.45195 24438 ft 487 kts 357°
2026-04-21 08:50 25.48934 113.45294 24446 ft 487 kts 357°
2026-04-21 08:50 25.52327 113.45392 24443 ft 488 kts 357°
2026-04-21 08:50 25.55721 113.45489 24458 ft 489 kts 357°
2026-04-21 08:51 25.59128 113.45587 24449 ft 490 kts 357°
2026-04-21 08:51 25.62546 113.45686 24429 ft 491 kts 356°
2026-04-21 08:51 25.65955 113.45787 24454 ft 490 kts 357°
2026-04-21 08:51 25.69370 113.45888 24435 ft 491 kts 356°
2026-04-21 08:52 25.72786 113.45989 24453 ft 490 kts 356°
2026-04-21 08:52 25.76195 113.46089 24445 ft 490 kts 356°
2026-04-21 08:52 25.79558 113.46187 24459 ft 490 kts 356°
2026-04-21 08:52 25.82972 113.46287 24448 ft 491 kts 356°
2026-04-21 08:53 25.86384 113.46388 24452 ft 490 kts 356°
2026-04-21 08:53 25.89796 113.46489 24441 ft 491 kts 356°
2026-04-21 08:53 25.93207 113.46594 24454 ft 490 kts 356°
2026-04-21 08:53 25.96612 113.46700 24453 ft 490 kts 356°
2026-04-21 08:54 26.00015 113.46806 24455 ft 489 kts 356°
2026-04-21 08:54 26.03418 113.46911 24468 ft 489 kts 356°
2026-04-21 08:54 26.06828 113.47015 24463 ft 490 kts 356°
2026-04-21 08:54 26.10236 113.47120 24458 ft 490 kts 356°
2026-04-21 08:55 26.13640 113.47227 24464 ft 489 kts 356°
2026-04-21 08:55 26.17047 113.47333 24470 ft 489 kts 356°
2026-04-21 08:55 26.20447 113.47438 24462 ft 489 kts 356°
2026-04-21 08:55 26.23851 113.47542 24466 ft 489 kts 356°
2026-04-21 08:56 26.27260 113.47647 24470 ft 490 kts 356°
2026-04-21 08:56 26.30668 113.47753 24465 ft 489 kts 356°
2026-04-21 08:56 26.34029 113.47861 24453 ft 476 kts 356°
2026-04-21 08:56 26.37299 113.47969 24448 ft 466 kts 356°
2026-04-21 08:57 26.40527 113.48071 24456 ft 463 kts 356°
2026-04-21 08:57 26.43750 113.48168 24464 ft 463 kts 356°
2026-04-21 08:57 26.46930 113.48263 24472 ft 464 kts 356°
2026-04-21 08:57 26.50163 113.48360 24476 ft 465 kts 356°
2026-04-21 08:58 26.53398 113.48458 24463 ft 466 kts 356°
2026-04-21 08:58 26.56646 113.48558 24465 ft 466 kts 356°
2026-04-21 08:58 26.59887 113.48659 24469 ft 466 kts 356°
2026-04-21 08:58 26.63128 113.48761 24467 ft 466 kts 356°
2026-04-21 08:59 26.66371 113.48862 24471 ft 466 kts 356°
2026-04-21 08:59 26.69612 113.48963 24442 ft 466 kts 356°
2026-04-21 08:59 26.71766 113.49030 24214 ft 469 kts 356°
2026-04-21 08:59 26.75035 113.49131 23767 ft 469 kts 356°
2026-04-21 09:00 26.78283 113.49233 23304 ft 464 kts 356°
2026-04-21 09:00 26.81491 113.49337 22782 ft 459 kts 356°
2026-04-21 09:00 26.84671 113.49439 22286 ft 455 kts 356°
2026-04-21 09:00 26.87831 113.49538 21790 ft 452 kts 356°
2026-04-21 09:01 26.90975 113.49636 21285 ft 450 kts 356°
2026-04-21 09:01 26.94103 113.49732 20689 ft 451 kts 356°
2026-04-21 09:01 26.97242 113.49828 20103 ft 451 kts 356°
2026-04-21 09:01 27.00377 113.49925 19539 ft 450 kts 357°
2026-04-21 09:02 27.03487 113.50023 19014 ft 447 kts 357°
2026-04-21 09:02 27.06594 113.50122 18556 ft 441 kts 357°
2026-04-21 09:02 27.09638 113.50220 18116 ft 435 kts 357°
2026-04-21 09:03 27.15652 113.50408 17091 ft 429 kts 357°
2026-04-21 09:03 27.18630 113.50501 16600 ft 426 kts 357°
2026-04-21 09:03 27.21546 113.50592 16122 ft 424 kts 357°
2026-04-21 09:03 27.24483 113.50653 15638 ft 417 kts 353°
2026-04-21 09:04 27.27264 113.50087 15127 ft 398 kts 336°
2026-04-21 09:04 27.29893 113.49046 14719 ft 403 kts 335°
2026-04-21 09:04 27.32546 113.48001 14287 ft 403 kts 336°
2026-04-21 09:04 27.35194 113.46990 13803 ft 399 kts 336°
2026-04-21 09:05 27.37817 113.46014 13350 ft 395 kts 336°
2026-04-21 09:05 27.40418 113.45056 12860 ft 393 kts 336°
2026-04-21 09:05 27.43009 113.44104 12312 ft 390 kts 337°
2026-04-21 09:05 27.45578 113.43165 11817 ft 385 kts 336°
2026-04-21 09:06 27.48112 113.42238 11333 ft 381 kts 336°
2026-04-21 09:06 27.50645 113.41489 10951 ft 373 kts 348°
2026-04-21 09:06 27.53226 113.41438 10855 ft 367 kts 356°
2026-04-21 09:06 27.55734 113.41503 10857 ft 356 kts 355°
2026-04-21 09:07 27.58189 113.41503 10815 ft 349 kts 354°
2026-04-21 09:07 27.60547 113.41475 10712 ft 335 kts 354°
2026-04-21 09:07 27.62856 113.41439 10414 ft 321 kts 353°
2026-04-21 09:07 27.65021 113.41406 9989 ft 311 kts 353°
2026-04-21 09:08 27.67168 113.41470 9464 ft 306 kts 358°
2026-04-21 09:08 27.69267 113.41669 8949 ft 299 kts 360°
2026-04-21 09:08 27.71310 113.41882 8438 ft 292 kts 360°
2026-04-21 09:08 27.73317 113.42081 7956 ft 286 kts 359°
2026-04-21 09:09 27.75284 113.42265 7462 ft 281 kts 359°
2026-04-21 09:09 27.77217 113.42440 6974 ft 276 kts 359°
2026-04-21 09:09 27.79118 113.42608 6510 ft 272 kts 359°
2026-04-21 09:09 27.80990 113.42764 6015 ft 267 kts 355°
2026-04-21 09:10 27.82739 113.42383 5487 ft 250 kts 329°
2026-04-21 09:10 27.84282 113.41587 5134 ft 241 kts 330°
2026-04-21 09:10 27.85809 113.40830 4796 ft 236 kts 330°
2026-04-21 09:10 27.87306 113.40091 4519 ft 236 kts 331°
2026-04-21 09:11 27.88828 113.39340 4156 ft 241 kts 332°
2026-04-21 09:11 27.90342 113.38601 3961 ft 235 kts 333°
2026-04-21 09:11 27.91809 113.37887 3902 ft 223 kts 333°
2026-04-21 09:11 27.93219 113.37198 3902 ft 222 kts 331°
2026-04-21 09:12 27.94432 113.36143 3843 ft 223 kts 300°
2026-04-21 09:12 27.94859 113.34519 3597 ft 212 kts 266°
2026-04-21 09:12 27.94775 113.32888 3390 ft 205 kts 264°
2026-04-21 09:12 27.94695 113.31288 3173 ft 201 kts 264°
2026-04-21 09:13 27.94619 113.29733 2981 ft 195 kts 265°
2026-04-21 09:13 27.94546 113.28236 2876 ft 193 kts 265°
2026-04-21 09:13 27.94471 113.26712 2708 ft 193 kts 265°
2026-04-21 09:13 27.94532 113.25224 2488 ft 190 kts 288°
2026-04-21 09:14 27.95340 113.24103 2379 ft 188 kts 330°
2026-04-21 09:14 27.96592 113.23717 2322 ft 189 kts 355°
2026-04-21 09:14 27.97906 113.23622 2293 ft 188 kts 357°
2026-04-21 09:14 27.99187 113.23551 2277 ft 185 kts 358°
2026-04-21 09:15 28.00496 113.23477 2283 ft 187 kts 357°
2026-04-21 09:15 28.01780 113.23405 2292 ft 188 kts 357°
2026-04-21 09:15 28.03087 113.23329 2292 ft 188 kts 357°
2026-04-21 09:15 28.04393 113.23250 2281 ft 188 kts 357°
2026-04-21 09:16 28.05674 113.23171 2264 ft 178 kts 357°
2026-04-21 09:16 28.06873 113.23099 2252 ft 167 kts 357°
2026-04-21 09:16 28.07995 113.23033 2054 ft 154 kts 357°
2026-04-21 09:16 28.09011 113.22972 1853 ft 141 kts 356°
2026-04-21 09:17 28.09975 113.22913 1673 ft 139 kts 356°
2026-04-21 09:17 28.10951 113.22851 1492 ft 141 kts 355°
2026-04-21 09:17 28.11943 113.22790 1305 ft 144 kts 356°
2026-04-21 09:17 28.12927 113.22744 1133 ft 141 kts 355°
2026-04-21 09:18 28.13916 113.22682 890 ft 142 kts 355°
2026-04-21 09:18 28.14891 113.22622 703 ft 138 kts 355°
2026-04-21 09:18 28.15847 113.22563 546 ft 140 kts 354°
2026-04-21 09:18 28.16828 113.22495 385 ft 143 kts 355°
2026-04-21 09:19 28.17823 113.22433 220 ft 142 kts 356°
2026-04-21 09:19 28.18700 113.22378 219 ft 103 kts 357°
2026-04-21 09:19 28.19253 113.22344 219 ft 69 kts 357°
2026-04-21 09:19 28.19507 113.22299 221 ft 29 kts 336°
2026-04-21 09:20 28.19683 113.22188 217 ft 29 kts 330°
2026-04-21 09:20 28.19870 113.22112 216 ft 29 kts 357°
2026-04-21 09:20 28.19979 113.22104 216 ft 0 kts 358°
2026-04-21 09:20 28.19983 113.22104 216 ft 2 kts 358°
2026-04-21 09:21 28.20011 113.22102 216 ft 6 kts 358°
2026-04-21 09:21 28.20050 113.22094 216 ft 6 kts 336°
2026-04-21 09:21 28.20075 113.22059 221 ft 6 kts 288°
2026-04-21 09:21 28.20074 113.22012 216 ft 6 kts 267°
2026-04-21 09:22 28.20072 113.21960 214 ft 7 kts 267°
2026-04-21 09:22 28.20069 113.21900 218 ft 8 kts 267°
2026-04-21 09:22 28.20066 113.21837 213 ft 8 kts 266°
2026-04-21 09:22 28.20062 113.21771 219 ft 8 kts 266°
2026-04-21 09:23 28.20059 113.21705 220 ft 8 kts 267°
2026-04-21 09:23 28.20043 113.21644 224 ft 8 kts 226°
2026-04-21 09:23 28.19987 113.21627 217 ft 8 kts 182°
2026-04-21 09:23 28.19929 113.21626 218 ft 8 kts 177°
2026-04-21 09:24 28.19869 113.21631 218 ft 8 kts 176°
2026-04-21 09:24 28.19813 113.21624 217 ft 9 kts 213°
2026-04-21 09:24 28.19790 113.21573 216 ft 0 kts 263°